This demonstration page uses our WeatherBlox Daily Observations layout. Learn more.

Left ArrowRight Arrow

Hourly Observations for June 12, 2017

Temp ( °F °C ) Dew Point ( °F °C ) Humidity (%) Winds ( mph kmh ) Pressure ( in mb ) Visibility ( mi km ) Precip ( " mm )
12:15 am 00:15 Clear 79 26 66 18.7 64 64 SE 10 17 29.65 1004 10 16.0934 0 0
12:35 am 00:35 Clear 78 25.6 66 18.8 66 66 SSE 9 15 29.65 1004 10 16.0934 0 0
12:55 am 00:55 Clear 78 25.3 66 18.8 67 67 SSE 10 17 29.65 1004 10 16.0934 0 0
1:15 am 01:15 Clear 76 24.6 66 18.7 70 70 SSE 10 17 29.65 1004 10 16.0934 0 0
1:35 am 01:35 Clear 76 24.5 66 18.7 70 70 SSE 8 13 29.68 1005 10 16.0934 0 0
1:55 am 01:55 Clear 75 24 65 18.6 72 72 SSE 7 11 29.68 1005 10 16.0934 0 0
2:15 am 02:15 Clear 75 23.7 65 18.6 73 73 SSE 8 13 29.68 1005 10 16.0934 0 0
2:35 am 02:35 Clear 74 23.1 66 18.7 76 76 SE 6 9 29.68 1005 10 16.0934 0 0
2:55 am 02:55 Clear 73 22.5 66 18.8 80 80 SE 5 7 29.68 1005 10 16.0934 0 0
3:15 am 03:15 Clear 72 22.3 66 19 82 82 SSE 8 13 29.68 1005 10 16.0934 0 0
3:35 am 03:35 Clear 73 23 67 19.2 79 79 SSE 8 13 29.68 1005 10 16.0934 0 0
3:55 am 03:55 Clear 72 22.2 66 19.1 83 83 SSE 9 15 29.65 1004 10 16.0934 0 0
4:15 am 04:15 Clear 72 22.2 67 19.2 83 83 SSE 12 19 29.65 1004 10 16.0934 0 0
4:35 am 04:35 Clear 72 22.2 66 19.1 83 83 SSE 10 17 29.65 1004 10 16.0934 0 0
4:55 am 04:55 Clear 71 21.7 66 19.1 85 85 SSE 8 13 29.65 1004 10 16.0934 0 0
5:15 am 05:15 Clear 71 21.5 66 19.1 86 86 SSE 8 13 29.65 1004 10 16.0934 0 0
5:35 am 05:35 Clear 71 21.5 66 19 86 86 SSE 9 15 29.65 1004 10 16.0934 0 0
5:55 am 05:55 Clear 70 21 66 18.9 88 88 SSE 9 15 29.68 1005 10 16.0934 0 0
6:15 am 06:15 Sunny 69 20.8 66 18.8 88 88 SSE 9 15 29.71 1006 10 16.0934 0 0
6:35 am 06:35 Sunny 69 20.7 66 18.8 89 89 SSE 9 15 29.71 1006 10 16.0934 0 0
6:55 am 06:55 Sunny 70 20.9 66 18.8 88 88 SSE 8 13 29.71 1006 10 16.0934 0 0
7:15 am 07:15 Sunny 71 21.4 66 19 86 86 SSE 10 17 29.68 1005 10 16.0934 0 0
7:35 am 07:35 Sunny 72 22 66 19 83 83 SSE 10 17 29.68 1005 10 16.0934 0 0
7:55 am 07:55 Sunny 73 22.5 66 19 81 81 SSE 15 24 29.68 1005 10 16.0934 0 0
8:15 am 08:15 Sunny 73 23 66 18.9 78 78 SSE 13 20 29.68 1005 10 16.0934 0 0
8:35 am 08:35 Sunny 74 23.2 66 18.7 76 76 SSE 12 19 29.68 1005 10 16.0934 0 0
8:55 am 08:55 Sunny 75 24 66 18.8 73 73 S 16 26 29.68 1005 10 16.0934 0 0
9:15 am 09:15 Sunny 76 24.2 66 18.8 72 72 SSE 15 24 29.68 1005 10 16.0934 0 0
9:35 am 09:35 Sunny 77 24.9 65 18.6 68 68 SSE 13 20 29.65 1004 10 16.0934 0 0
9:55 am 09:55 Sunny 78 25.5 66 18.8 67 67 SSE 15 24 29.65 1004 10 16.0934 0 0
10:15 am 10:15 Partly Cloudy 78 25.7 66 18.7 65 65 SE 13 20 29.65 1004 10 16.0934 0 0
10:35 am 10:35 Partly Cloudy 79 25.9 65 18.5 64 64 SE 13 20 29.65 1004 10 16.0934 0 0
10:55 am 10:55 Mostly Cloudy 79 26.1 66 18.8 64 64 SE 14 22 29.65 1004 10 16.0934 0 0
11:15 am 11:15 Partly Cloudy 80 26.4 66 18.7 63 63 SSE 10 17 29.65 1004 10 16.0934 0 0
11:35 am 11:35 Partly Cloudy 80 26.8 65 18.4 60 60 SSE 14 22 29.65 1004 10 16.0934 0 0
11:55 am 11:55 Mostly Cloudy 82 27.8 66 19 59 59 SSE 13 20 29.65 1004 10 16.0934 0 0
12:15 pm 12:15 Partly Cloudy 83 28.1 66 18.8 57 57 SSE 12 19 29.65 1004 10 16.0934 0 0
12:35 pm 12:35 Sunny 83 28.1 66 18.7 57 57 SSE 14 22 29.65 1004 10 16.0934 0 0
12:55 pm 12:55 Sunny 83 28.6 66 18.7 55 55 S 12 19 29.62 1003 10 16.0934 0 0
1:15 pm 13:15 Sunny 84 29.1 66 18.7 53 53 SE 16 26 29.62 1003 10 16.0934 0 0
1:35 pm 13:35 Sunny 84 29 65 18.4 53 53 SSE 17 28 29.62 1003 10 16.0934 0 0
1:55 pm 13:55 Sunny 86 29.8 65 18.4 50 50 SSE 20 31 29.62 1003 10 16.0934 0 0
2:15 pm 14:15 Sunny 85 29.6 65 18.1 50 50 SSE 15 24 29.59 1002 10 16.0934 0 0
2:35 pm 14:35 Sunny 87 30.6 64 18 47 47 SE 20 31 29.59 1002 10 16.0934 0 0
2:55 pm 14:55 Sunny 87 30.7 63 17 44 44 SSE 16 26 29.59 1002 10 16.0934 0 0
3:15 pm 15:15 Sunny 88 31.1 63 17.1 43 43 SSE 17 28 29.59 1002 10 16.0934 0 0
3:35 pm 15:35 Sunny 89 31.7 62 16.5 40 40 SSE 18 30 29.59 1002 10 16.0934 0 0
3:55 pm 15:55 Partly Cloudy 90 32 62 16.8 40 40 S 20 31 29.56 1001 10 16.0934 0 0
4:15 pm 16:15 Partly Cloudy 90 32.1 63 17.3 41 41 SSE 18 30 29.56 1001 10 16.0934 0 0
4:35 pm 16:35 Partly Cloudy 89 31.7 62 16.4 40 40 S 17 28 29.59 1002 10 16.0934 0 0
4:55 pm 16:55 Mostly Cloudy 91 32.9 63 17.3 39 39 SE 16 26 29.56 1001 10 16.0934 0 0
5:15 pm 17:15 Mostly Cloudy 91 32.6 62 16.4 38 38 SSE 14 22 29.56 1001 10 16.0934 0 0
5:35 pm 17:35 Mostly Cloudy 91 33 62 16.5 37 37 SSE 12 19 29.53 1000 10 16.0934 0 0
5:55 pm 17:55 Mostly Cloudy 92 33.5 62 16.4 36 36 SSE 17 28 29.53 1000 10 16.0934 0 0
6:15 pm 18:15 Partly Cloudy 92 33.3 61 16.3 36 36 SSE 18 30 29.5 999 10 16.0934 0 0
6:35 pm 18:35 Partly Cloudy 92 33.4 62 16.8 37 37 SE 21 33 29.5 999 10 16.0934 0 0
6:55 pm 18:55 Sunny 91 33 63 17.4 39 39 SE 20 31 29.5 999 10 16.0934 0 0
7:15 pm 19:15 Sunny 91 33 63 17.2 39 39 SE 22 35 29.5 999 10 16.0934 0 0
7:35 pm 19:35 Sunny 91 32.6 63 17 39 39 SE 21 33 29.5 999 10 16.0934 0 0
7:55 pm 19:55 Sunny 90 32.1 63 17.1 41 41 SSE 16 26 29.5 999 10 16.0934 0 0
8:15 pm 20:15 Sunny 89 31.6 63 17 42 42 SSE 18 30 29.5 999 10 16.0934 0 0
8:35 pm 20:35 Sunny 87 30.8 63 17 44 44 SSE 16 26 29.53 1000 10 16.0934 0 0
8:55 pm 20:55 Sunny 86 30.1 63 17 45 45 SSE 15 24 29.53 1000 10 16.0934 0 0
9:15 pm 21:15 Clear 85 29.3 63 17 47 47 SSE 15 24 29.53 1000 10 16.0934 0 0
9:35 pm 21:35 Clear 84 28.7 63 17 49 49 SSE 16 26 29.53 1000 10 16.0934 0 0
9:55 pm 21:55 Clear 83 28.5 63 17.1 50 50 SSE 15 24 29.53 1000 10 16.0934 0 0
10:15 pm 22:15 Clear 82 28 64 17.5 53 53 SSE 18 30 29.53 1000 10 16.0934 0 0
10:35 pm 22:35 Clear 82 27.7 64 17.5 54 54 SSE 17 28 29.59 1002 10 16.0934 0 0
10:55 pm 22:55 Clear 81 27.3 64 17.6 55 55 SSE 16 26 29.59 1002 10 16.0934 0 0
11:15 pm 23:15 Clear 81 27.1 64 18 58 58 SSE 20 31 29.59 1002 10 16.0934 0 0
11:35 pm 23:35 Clear 80 26.8 65 18.3 60 60 SSE 20 31 29.59 1002 10 16.0934 0 0
11:55 pm 23:55 Clear 80 26.7 65 18.2 60 60 SSE 18 30 29.59 1002 10 16.0934 0 0

Powered by AerisWeather